Wind_Speed
17 17 16 16 17 17 17 17 17 18 19 20 20 20 21 21 21 22 23 22 21 20 19 19 17 16 15 15 14 12 11 11 10 11 12 14 15 14 15 15 15 14 15
17 17 17 16 16 16 16 16 16 17 18 19 20 20 21 21 22 22 23 23 23 22 21 20 19 18 17 17 16 15 13 12 12 12 13 14 14 14 15 15 15 15 15
16 17 17 16 16 15 15 15 16 16 17 18 19 20 21 21 23 22 23 23 23 24 23 20 20 20 19 19 17 17 16 14 14 14 15 14 14 14 15 16 16 15 15
17 17 17 16 15 15 15 15 15 15 16 17 18 19 20 21 22 23 23 24 25 25 24 23 21 21 21 20 19 19 18 16 16 15 16 15 15 15 15 16 16 16 15
17 17 17 17 16 15 14 14 14 14 14 16 17 18 19 20 22 23 24 24 25 25 25 24 23 22 22 21 21 20 19 18 17 17 17 17 16 16 15 16 17 17 16
18 18 17 17 16 15 13 13 13 13 13 14 15 17 18 19 21 23 24 25 26 25 25 24 24 23 23 22 22 22 21 20 19 19 18 18 17 16 16 16 17 16 16
18 18 17 17 16 15 13 12 12 12 12 13 14 15 17 19 21 23 24 25 25 25 25 26 25 24 24 23 23 23 22 21 21 20 20 19 18 18 18 17 17 17 17
18 18 17 16 16 14 13 12 11 10 11 11 12 13 16 17 19 21 24 25 25 25 26 26 26 25 25 24 24 24 23 22 22 22 22 21 20 20 19 19 18 18 18
18 18 17 16 15 14 13 11 10 9 9 10 10 12 14 16 18 19 22 23 24 25 25 26 26 26 25 25 24 25 24 23 23 22 23 22 21 21 21 20 20 19 19
18 18 17 16 15 13 12 11 9 8 8 9 9 10 12 14 17 17 19 21 23 24 24 25 26 26 26 26 25 24 25 25 25 24 23 23 22 22 22 22 22 21 21
19 18 17 16 15 13 12 11 8 7 6 7 8 9 10 12 14 16 18 20 21 23 24 24 25 25 25 26 25 25 25 26 26 25 24 24 24 23 23 23 23 22 22
19 18 17 16 15 14 12 10 8 6 5 5 6 8 9 11 13 15 17 18 19 21 22 23 23 24 25 25 25 25 26 26 26 26 25 25 24 24 24 24 24 24 23
18 19 17 16 15 14 12 10 8 6 5 5 5 7 8 9 11 13 16 17 18 20 21 22 22 23 24 25 25 25 25 26 26 25 26 25 25 25 25 24 24 25 24
18 18 18 16 15 14 12 10 8 6 5 4 5 5 6 8 10 11 14 15 16 18 18 20 21 22 24 25 25 25 25 25 26 26 26 26 26 26 25 26 26 26 26
17 18 18 17 15 14 12 10 9 7 5 4 4 4 5 6 8 10 12 13 14 17 17 19 20 21 23 24 25 24 25 26 26 26 26 27 27 27 26 26 26 27 27
16 16 17 17 16 14 13 11 9 7 6 4 3 4 4 5 6 8 10 12 13 14 16 18 19 20 20 22 23 24 24 25 26 26 26 26 27 27 28 28 27 27 27
15 15 16 16 15 14 13 11 9 8 7 4 3 3 3 4 6 7 10 11 12 13 14 16 17 18 19 21 22 23 24 25 27 28 27 27 27 27 28 29 29 29 29
14 15 15 15 14 14 13 11 10 8 7 5 3 3 3 3 5 7 8 10 11 13 14 15 15 16 17 19 21 22 24 26 27 27 28 28 28 28 29 29 30 30 31
13 14 14 14 14 14 13 12 10 9 8 6 5 3 3 4 4 6 7 9 11 13 14 14 15 15 17 17 18 20 22 24 26 27 27 28 28 29 30 30 31 32 32
13 13 14 14 14 13 13 12 11 9 8 7 6 5 4 4 4 5 7 8 9 11 13 14 15 15 16 17 18 20 21 22 24 25 26 28 28 28 29 30 31 31 32
13 13 13 13 13 13 12 11 10 9 9 8 7 6 5 4 4 5 6 7 9 11 13 14 15 16 16 16 17 18 19 21 22 24 25 27 27 28 29 30 31 32 32
14 14 14 13 13 13 12 11 11 10 9 8 7 7 6 5 5 5 6 7 8 9 11 13 14 15 15 16 17 17 19 20 21 23 25 25 26 26 27 28 30 32 33
15 15 14 14 13 13 12 12 11 11 10 9 8 8 7 6 7 6 7 8 9 9 10 12 14 14 15 16 17 18 18 19 21 22 23 24 25 25 27 29 29 30 31
16 16 16 15 14 14 13 13 12 11 10 10 9 8 8 7 7 7 8 9 10 10 11 12 14 14 15 16 17 17 18 18 20 21 22 24 24 25 26 27 28 29 29
18 18 17 17 16 15 14 13 13 12 11 10 10 9 9 9 9 9 9 10 11 11 12 13 14 15 16 16 17 18 19 19 20 21 22 23 24 25 25 25 27 28 29
20 20 19 18 18 17 16 15 14 13 13 12 11 11 11 10 10 10 10 11 11 12 13 14 15 16 17 17 18 18 18 19 20 21 22 22 23 24 26 26 26 27 28
Wind_Direction
317 314 310 305 299 292 286 279 271 264 258 254 252 248 243 240 237 233 231 229 226 225 224 223 219 215 213 212 210 206 202 198 192 184 182 182 184 184 183 182 181 182 180
322 319 314 309 304 297 289 281 272 265 258 253 251 246 242 238 235 231 229 227 225 223 223 223 222 219 216 214 213 209 206 203 198 193 189 187 188 186 186 185 185 186 186
326 324 320 314 309 301 293 285 275 267 259 253 249 244 240 236 233 230 227 225 225 223 223 223 220 219 217 216 215 211 208 207 204 199 197 195 192 188 187 190 191 191 192
331 328 326 320 314 306 296 288 279 268 261 254 248 243 239 235 230 229 227 224 224 223 222 224 222 220 216 215 215 213 212 210 207 205 203 200 198 195 194 196 195 196 197
333 331 329 326 320 312 301 290 282 271 263 255 248 242 238 234 229 227 226 224 222 221 222 223 222 220 215 215 215 214 213 211 210 209 209 207 206 203 201 202 202 202 203
336 333 331 329 325 317 307 296 285 273 264 256 248 240 235 232 226 224 223 223 221 220 220 221 220 218 216 216 216 214 215 214 212 213 212 211 211 210 209 208 208 209 210
338 335 333 332 329 323 314 302 290 276 267 258 249 239 233 231 226 222 221 221 221 219 219 221 221 220 217 217 216 215 216 216 214 215 215 215 216 216 213 212 213 214 218
342 340 338 335 332 328 320 311 297 282 270 258 249 240 234 229 223 221 221 220 219 218 218 219 219 219 218 216 216 217 218 219 219 218 218 218 219 219 218 218 219 221 224
345 345 343 341 337 333 328 319 307 288 272 260 251 244 237 231 227 223 218 217 217 217 218 218 218 218 219 219 219 220 220 220 219 219 220 220 221 221 222 224 225 226 227
349 348 347 347 345 341 337 330 317 296 275 261 254 248 240 233 229 224 220 217 217 216 217 219 219 219 219 219 220 220 220 220 220 221 222 223 224 224 226 228 229 230 232
351 350 349 350 349 346 341 336 328 309 285 263 252 247 239 234 229 226 224 219 217 217 218 219 220 219 220 219 219 219 220 222 222 223 223 225 226 227 230 232 232 233 235
353 352 351 352 351 349 345 340 333 320 298 271 256 248 240 235 231 227 226 222 219 218 220 220 221 221 221 220 220 220 221 221 223 225 225 227 228 229 232 234 235 236 237
354 355 355 353 353 352 349 345 337 328 307 284 267 254 244 238 232 228 226 223 220 219 219 221 222 221 219 220 220 221 222 222 225 227 228 229 231 232 233 235 237 237 239
354 356 359 357 354 354 354 350 344 332 311 289 273 260 247 239 233 229 225 223 223 219 218 219 221 221 220 221 221 221 223 225 226 229 231 232 233 235 236 238 240 240 242
355 357 1 2 359 359 357 356 353 344 328 302 283 271 255 243 233 229 225 224 224 220 219 221 224 221 220 222 221 221 224 226 228 230 233 235 237 239 241 241 242 243 244
354 357 1 4 4 3 2 359 360 358 345 323 288 276 262 243 237 234 227 225 222 221 222 225 226 222 224 224 224 225 228 230 230 231 235 236 238 241 243 243 243 245 247
351 355 358 1 3 3 2 1 360 0 355 342 309 286 277 253 242 236 232 230 226 223 223 225 228 228 228 228 229 231 232 233 234 235 237 238 240 242 244 245 245 246 248
345 350 353 356 359 1 1 359 358 357 355 345 327 294 290 271 248 238 237 234 230 226 226 226 227 227 229 230 232 233 235 236 236 237 239 240 242 243 244 245 247 249 250
338 343 348 351 354 357 358 358 357 356 354 348 340 325 302 283 259 246 242 238 234 229 229 230 230 230 230 233 235 236 239 240 239 238 241 243 245 246 246 247 248 250 252
331 335 340 345 348 350 353 355 355 354 352 349 345 332 313 291 268 250 246 242 237 234 233 235 237 237 239 238 239 241 242 243 243 243 244 244 246 248 249 249 250 252 253
322 326 329 335 340 344 345 347 349 348 346 344 341 336 321 303 279 257 247 244 241 240 238 239 240 241 245 245 245 245 246 245 245 246 247 248 248 250 251 252 253 254 255
312 316 319 324 329 333 337 339 341 339 337 333 332 329 317 303 290 275 259 250 247 244 241 240 241 242 245 247 248 249 250 248 249 249 251 251 251 251 252 254 254 255 256
303 306 309 313 318 323 325 327 329 331 329 325 323 319 310 303 292 280 265 257 254 254 250 246 246 246 248 251 253 254 255 254 255 255 256 257 256 256 258 259 257 257 256
295 298 301 304 307 311 315 317 319 321 321 319 317 314 308 301 294 285 272 263 259 259 258 255 253 253 255 257 258 259 258 260 261 258 259 260 260 260 262 262 260 259 259
289 291 293 296 298 300 303 306 309 310 312 312 312 308 303 298 293 287 279 272 268 266 264 262 260 259 261 262 262 262 262 263 264 263 264 263 262 263 263 262 261 259 260
285 286 287 289 291 292 294 295 298 300 301 301 302 302 299 295 291 287 282 278 273 270 266 264 264 264 265 266 266 265 265 265 265 265 266 266 265 264 263 264 265 264 263
Height
5821 5819 5817 5814 5813 5811 5810 5810 5810 5810 5811 5813 5814 5816 5819 5821 5824 5827 5830 5834 5837 5840 5843 5846 5849 5852 5854 5857 5859 5861 5864 5865 5867 5868 5869 5871 5874 5876 5878 5881 5883 5885 5888
5818 5815 5813 5811 5809 5807 5806 5805 5805 5806 5806 5808 5809 5811 5814 5816 5819 5822 5826 5829 5833 5836 5840 5843 5846 5849 5852 5854 5857 5860 5862 5864 5866 5868 5869 5871 5873 5875 5877 5879 5882 5885 5887
5815 5812 5810 5807 5805 5803 5801 5801 5801 5801 5802 5803 5804 5806 5809 5812 5815 5818 5821 5825 5828 5832 5836 5839 5842 5846 5849 5851 5854 5857 5860 5862 5864 5866 5868 5871 5872 5874 5876 5879 5881 5884 5887
5812 5809 5806 5803 5801 5799 5798 5797 5796 5796 5797 5798 5800 5801 5804 5806 5809 5813 5816 5820 5824 5828 5832 5835 5839 5842 5845 5848 5851 5855 5858 5860 5862 5865 5867 5870 5872 5874 5876 5878 5881 5883 5886
5810 5807 5803 5800 5798 5796 5794 5793 5792 5792 5792 5793 5795 5797 5799 5801 5805 5808 5812 5815 5819 5823 5827 5831 5835 5838 5842 5845 5848 5852 5855 5858 5860 5863 5865 5868 5870 5873 5875 5877 5880 5882 5884
5807 5804 5800 5797 5795 5792 5790 5789 5788 5788 5788 5789 5790 5792 5794 5797 5800 5803 5807 5811 5815 5819 5823 5827 5831 5834 5838 5842 5845 5848 5851 5855 5858 5861 5863 5865 5868 5871 5873 5876 5878 5880 5883
5805 5801 5798 5795 5792 5789 5787 5785 5784 5784 5784 5785 5786 5788 5790 5792 5795 5799 5802 5806 5810 5814 5818 5823 5827 5831 5834 5838 5841 5845 5848 5851 5855 5858 5861 5863 5866 5869 5871 5874 5876 5878 5881
5803 5799 5796 5792 5789 5786 5784 5782 5781 5781 5781 5782 5783 5784 5786 5789 5791 5794 5798 5802 5806 5810 5814 5818 5822 5826 5830 5834 5838 5841 5845 5848 5851 5855 5858 5860 5863 5866 5868 5871 5874 5876 5878
5801 5798 5794 5790 5787 5784 5782 5780 5778 5778 5778 5779 5780 5781 5783 5785 5788 5791 5794 5797 5801 5806 5809 5814 5818 5822 5826 5830 5834 5838 5841 5844 5848 5851 5854 5857 5860 5863 5866 5868 5870 5873 5875
5800 5796 5793 5789 5786 5783 5780 5778 5776 5776 5776 5776 5777 5778 5780 5782 5785 5787 5790 5793 5797 5801 5805 5809 5813 5817 5821 5826 5830 5833 5837 5840 5844 5847 5850 5853 5856 5859 5862 5865 5867 5869 5872
5800 5795 5792 5788 5785 5782 5779 5777 5775 5774 5774 5774 5775 5776 5777 5779 5781 5784 5787 5790 5794 5797 5801 5805 5809 5813 5817 5821 5825 5829 5833 5836 5840 5843 5845 5849 5852 5855 5858 5860 5863 5865 5868
5799 5795 5791 5787 5784 5781 5778 5776 5774 5773 5773 5773 5773 5774 5775 5776 5778 5781 5784 5787 5790 5794 5797 5801 5804 5808 5812 5816 5820 5824 5828 5832 5835 5838 5841 5844 5847 5850 5853 5856 5858 5861 5863
5799 5795 5791 5787 5784 5780 5778 5775 5774 5773 5772 5772 5772 5773 5773 5775 5776 5778 5781 5784 5787 5790 5793 5797 5801 5804 5808 5812 5816 5820 5823 5827 5831 5834 5837 5840 5842 5845 5848 5851 5853 5856 5858
5798 5795 5790 5787 5783 5780 5777 5775 5773 5772 5771 5771 5771 5771 5772 5773 5774 5776 5779 5781 5784 5787 5790 5794 5797 5800 5804 5808 5811 5815 5819 5822 5826 5829 5832 5835 5838 5840 5843 5845 5848 5850 5853
5798 5794 5791 5787 5783 5780 5777 5775 5773 5772 5771 5770 5770 5771 5771 5772 5773 5774 5776 5779 5782 5784 5787 5790 5793 5796 5800 5803 5807 5810 5814 5817 5821 5824 5827 5830 5832 5835 5837 5839 5842 5844 5847
5798 5794 5791 5787 5784 5781 5778 5775 5773 5772 5770 5770 5769 5770 5770 5770 5771 5773 5775 5777 5779 5782 5784 5787 5790 5793 5796 5799 5802 5806 5809 5812 5815 5819 5821 5824 5826 5829 5831 5833 5836 5838 5840
5798 5794 5791 5788 5785 5781 5779 5776 5774 5772 5771 5769 5769 5769 5769 5769 5770 5772 5773 5775 5777 5779 5782 5784 5786 5789 5792 5795 5798 5801 5804 5807 5810 5813 5815 5818 5820 5823 5825 5827 5829 5832 5834
5797 5794 5791 5788 5785 5782 5779 5776 5774 5772 5771 5769 5769 5769 5769 5769 5769 5770 5772 5773 5775 5777 5779 5781 5783 5786 5788 5791 5793 5796 5799 5801 5804 5806 5809 5811 5814 5816 5818 5820 5823 5825 5827
5796 5794 5791 5788 5785 5782 5779 5777 5774 5772 5771 5770 5769 5768 5768 5768 5768 5769 5770 5771 5773 5775 5776 5778 5780 5782 5785 5787 5789 5791 5793 5795 5797 5800 5802 5805 5807 5809 5811 5813 5815 5817 5819
5795 5793 5790 5788 5785 5782 5780 5777 5774 5773 5771 5770 5769 5768 5767 5767 5767 5768 5769 5770 5771 5772 5774 5776 5778 5779 5781 5783 5785 5787 5788 5790 5792 5794 5796 5798 5800 5802 5803 5806 5807 5809 5811
5793 5791 5789 5787 5784 5782 5779 5777 5775 5773 5771 5770 5768 5767 5767 5766 5766 5766 5767 5768 5769 5770 5771 5773 5774 5776 5777 5779 5781 5782 5783 5785 5786 5788 5789 5791 5793 5794 5796 5798 5799 5801 5802
5791 5789 5787 5785 5783 5781 5779 5776 5774 5772 5771 5769 5768 5767 5766 5765 5765 5765 5765 5766 5767 5768 5768 5770 5771 5772 5773 5775 5776 5777 5779 5780 5781 5782 5783 5785 5786 5787 5788 5790 5791 5792 5794
5789 5787 5785 5783 5781 5779 5777 5775 5773 5771 5770 5768 5766 5765 5765 5764 5764 5763 5763 5764 5764 5765 5766 5767 5767 5768 5769 5771 5772 5773 5773 5774 5775 5776 5777 5778 5779 5780 5781 5782 5783 5784 5785
5785 5784 5782 5780 5779 5777 5775 5773 5772 5770 5768 5766 5765 5764 5763 5762 5762 5761 5761 5761 5761 5762 5762 5763 5764 5765 5765 5766 5767 5768 5768 5769 5769 5770 5770 5771 5772 5773 5773 5774 5775 5776 5777
5781 5780 5778 5777 5775 5774 5772 5771 5769 5768 5766 5765 5763 5762 5761 5760 5759 5759 5759 5758 5759 5759 5759 5759 5760 5760 5761 5761 5762 5762 5763 5763 5764 5764 5764 5765 5765 5766 5766 5767 5767 5768 5769
5776 5775 5774 5772 5771 5770 5768 5767 5766 5765 5763 5762 5761 5759 5758 5757 5757 5756 5755 5755 5755 5755 5755 5755 5755 5756 5756 5756 5756 5757 5757 5757 5758 5758 5758 5759 5759 5759 5760 5760 5760 5761 5761